[keps] orb08087.2l.amsat
Ray Hoad
r.hoad at att.net
Thu Mar 27 18:27:58 PST 2008
SB KEPS @ AMSAT $ORB08087.N
2Line Orbital Elements 08087.AMSAT
HR AMSAT ORBITAL ELEMENTS FOR AMATEUR SATELLITES IN NASA FORMAT
FROM WA5QGD FORT WORTH,TX March 27, 2008
Send Subscribe/unsubscribe to KEPS at
http://www.amsat.org/mailman/listinfo/keps
BID: ORB08087.N
DECODE 2-LINE ELSETS WITH THE FOLLOWING KEY:
1 AAAAAU 00 0 0 BBBBB.BBBBBBBB .CCCCCCCC 00000-0 00000-0 0 DDDZ
2 AAAAA EEE.EEEE FFF.FFFF GGGGGGG HHH.HHHH III.IIII JJ.JJJJJJJJKKKKKZ
KEY: A-CATALOGNUM B-EPOCHTIME C-DECAY D-ELSETNUM E-INCLINATION F-RAAN
G-ECCENTRICITY H-ARGPERIGEE I-MNANOM J-MNMOTION K-ORBITNUM Z-CHECKSUM
TO ALL RADIO AMATEURS BT
AO-07
1 07530U 74089B 08086.69394033 -.00000027 00000-0 10000-3 0 01370
2 07530 101.4767 120.9244 0012083 064.3556 295.8762 12.53573699526640
AO-10
1 14129U 83058B 08086.68786823 -.00000004 00000-0 10000-3 0 4872
2 14129 025.9253 223.5194 6014113 110.1621 321.5334 02.05869097186405
UO-11
1 14781U 84021B 08086.88607234 .00000115 00000-0 22577-4 0 06302
2 14781 098.1626 119.6533 0008660 345.1376 014.9533 14.79627778291681
RS-15
1 23439U 94085A 08086.88519857 -.00000039 00000-0 10000-3 0 01652
2 23439 064.8152 268.1378 0149898 138.4589 222.7839 11.27552050545680
FO-29
1 24278U 96046B 08086.96136206 .00000041 00000-0 75329-4 0 07491
2 24278 098.5875 014.0057 0351354 068.4537 295.3667 13.52936734573273
SO-33
1 25509U 98061B 08086.29069224 .00000403 00000-0 69853-4 0 01625
2 25509 031.4303 065.0571 0354711 022.4231 339.1493 14.28205915491751
AO-40
1 26609U 00072B 08086.00615633 -.00000299 00000-0 10000-3 0 297
2 26609 007.4975 091.1418 7918516 064.9376 354.6858 01.25584116 33999
VO-52
1 28650U 05017B 08087.74760167 .00000053 00000-0 13419-4 0 8905
2 28650 097.7954 156.5690 0028015 048.5116 311.8530 14.81437450156546
PO-63
1 29712U 07001D 08087.22205042 .00000582 00000-0 83558-4 0 3058
2 29712 097.8822 146.9241 0013127 289.9451 070.0346 14.80070825 65341
AO-16
1 20439U 90005D 08086.74880638 -.00000001 00000-0 14919-4 0 2823
2 20439 098.2241 071.0517 0011986 063.2278 297.0136 14.31787994949126
LO-19
1 20442U 90005G 08086.94954689 -.00000057 00000-0 -62545-5 0 02109
2 20442 098.1976 080.0183 0012775 062.3217 297.9282 14.32026627949304
AO-27
1 22825U 93061C 08086.94188439 -.00000175 00000-0 -52638-4 0 09326
2 22825 098.3749 050.0843 0008802 138.3261 221.8590 14.29233163756024
IO-26
1 22826U 93061D 08086.80022328 -.00000006 00000-0 14132-4 0 6333
2 22826 098.3681 050.8961 0009443 136.2421 223.9505 14.29481830756098
PO-28
1 22829U 93061G 08086.89707287 .00000007 00000-0 18911-4 0 09072
2 22829 098.3567 052.1084 0010575 109.8541 250.3775 14.30183930756367
GO-32
1 25397U 98043D 08087.76518834 .00000064 00000-0 46569-4 0 5603
2 25397 098.3740 126.9143 0002088 107.2719 252.8682 14.23141037504637
MO-46
1 26548U 00057D 08086.91132095 -.00000054 00000-0 11500-4 0 00586
2 26548 064.5595 024.8574 0020623 335.5653 024.4448 14.83239367405612
NO-44
1 26931U 01043C 08087.49738642 .00000187 00000-0 10545-3 0 8392
2 26931 067.0519 135.1001 0005454 275.6827 084.3647 14.29517387338730
SO-50
1 27607U 02058C 08086.90073036 .00000032 00000-0 27008-4 0 05641
2 27607 064.5600 303.5399 0082509 295.7999 063.4588 14.71338811282868
CO-55
1 27844U 03031E 08086.60678270 .00000052 00000-0 44328-4 0 2670
2 27844 098.7180 096.0132 0010191 359.8749 000.2416 14.20567881245712
CO-57
1 27848U 03031J 08086.59380015 .00000027 00000-0 33015-4 0 2199
2 27848 098.7192 095.1145 0009933 003.2772 356.8459 14.20378783245685
AO-51
1 28375U 04025K 08086.67423562 .00000013 00000-0 16528-4 0 624
2 28375 098.0802 115.8559 0085205 043.2162 317.5672 14.40601063196525
CO-56
1 28941U 06005C 08087.79098419 .00034750 27973-5 28379-3 0 9438
2 28941 098.1013 187.6791 0180019 336.3550 022.9795 15.52589332117399
CP4
1 31122U 07012F 08087.19568073 .00000550 00000-0 13192-3 0 2982
2 31122 098.0474 155.8056 0084988 222.6100 136.8488 14.55102232 50157
CP3
1 31128U 07012M 08087.39621400 -.00000048 00000-0 00000 0 0 2910
2 31128 098.0463 154.2664 0102105 227.1398 132.1196 14.51927084 50061
LIBERT
1 31129U 07012N 08087.16863407 .00000337 00000-0 89029-4 0 8493
2 31129 098.0454 154.0818 0101841 228.0792 131.1658 14.52015262 50019
NOAA-10
1 16969U 86073A 08087.06843563 .00000032 00000-0 31023-4 0 598
2 16969 098.7288 109.1787 0013203 062.4793 297.7718 14.27354496119724
NOAA-11
1 19531U 88089A 08087.13542105 .00000085 00000-0 66571-4 0 966
2 19531 098.7960 177.6093 0010870 304.3300 055.6829 14.14869307 6309
NOAA-12
1 21263U 91032A 08087.08075285 .00000034 00000-0 33359-4 0 6044
2 21263 098.7672 089.0407 0012575 008.7460 351.3925 14.25522943876699
MET-3/5
1 21655U 91056A 08086.91835178 .00000051 00000-0 10000-3 0 04113
2 21655 082.5590 162.5019 0012754 214.3209 145.7091 13.17015304798752
MET-2/21
1 22782U 93055A 08086.77085796 -.00000010 00000-0 -22218-4 0 01011
2 22782 082.5511 176.9484 0023189 157.6031 202.6148 13.83627066735730
OKEAN-4
1 23317U 94066A 08086.85356984 .00000174 00000-0 18555-4 0 05436
2 23317 082.5414 031.8864 0023615 041.4406 318.8590 14.82590845726081
NOAA-14
1 23455U 94089A 08087.45041707 .00000189 00000-0 12391-3 0 796
2 23455 098.9507 159.6280 0009482 022.2023 337.9558 14.13738738682803
SICH-1
1 23657U 95046A 08086.81978398 .00000328 00000-0 38508-4 0 3403
2 23657 082.5313 172.8914 0025064 034.4513 325.8334 14.81563047678026
NOAA-15
1 25338U 98030A 08087.11792966 -.00000150 00000-0 -46201-4 0 4030
2 25338 098.5524 081.0765 0009624 282.8431 077.1686 14.24691139513118
RESURS
1 25394U 98043A 08087.68106080 -.00000018 00000-0 10210-4 0 8884
2 25394 098.4005 135.3196 0002440 074.9755 285.1691 14.24155663504846
FENGYUN1
1 25730U 99025A 08086.96324893 .00000113 00000-0 91376-4 0 04066
2 25730 098.7212 065.5419 0022588 044.4651 315.8326 14.07720250457391
OKEAN-0
1 25860U 99039A 08086.61068582 .00000032 00000-0 12108-4 0 03253
2 25860 097.7464 080.8287 0001164 103.6761 256.4580 14.73509722467231
NOAA-16
1 26536U 00055A 08087.10759147 -.00000081 00000-0 -18865-4 0 8654
2 26536 099.1527 074.5027 0011370 095.0932 265.1572 14.12472355387181
NOAA-17
1 27453U 02032A 08087.47342721 .00000102 00000-0 62963-4 0 8623
2 27453 098.5408 154.4412 0011324 351.4408 008.6562 14.23960015299170
NOAA-18
1 28654U 05018A 08087.44333335 .00000086 00000-0 72138-4 0 3690
2 28654 098.8619 029.4061 0014092 181.6353 178.4754 14.11149031146948
HUBBLE
1 20580U 90037B 08086.46069789 .00000371 00000-0 15883-4 0 01122
2 20580 028.4673 142.7809 0003907 224.8613 135.1662 15.00354077782545
UARS
1 21701U 91063B 08087.72087671 .00005038 00000-0 80158-4 0 3245
2 21701 056.9734 156.7001 0088432 027.0805 333.4826 15.50995585909856
PO-34
1 25520U 98064B 08086.97126369 .00000496 00000-0 14657-4 0 09600
2 25520 028.4601 009.1976 0005484 110.6825 249.4354 15.17156762520664
ISS
1 25544U 98067A 08087.97031817 .00015621 00000-0 99805-4 0 1957
2 25544 051.6415 075.0744 0000589 329.7644 081.1587 15.76565780535719
OO-38
1 26063U 00004C 08087.27364344 -.00000032 00000-0 92434-5 0 1701
2 26063 100.1986 147.0673 0037227 080.5029 280.0357 14.35830473427812
UWE-1
1 28892U 05043C 08087.71319112 .00000153 00000-0 41721-4 0 88
2 28892 098.1047 343.2647 0016558 306.7318 053.2320 14.59607607128711
CO-58
1 28895U 05043F 08086.72367807 .00000019 00000-0 13704-4 0 09827
2 28895 098.1075 342.6217 0017198 310.2401 049.7306 14.59648201128455
NCUBE2
1 28897U 05043H 08086.69779166 .00000118 00000-0 34291-4 0 05134
2 28897 098.1055 342.5308 0016814 311.9859 047.9900 14.59817409120735
FCAL
1 29667U 06055J 08087.80124598 .00135782 20051-4 16603-3 0 8644
2 29667 051.6251 026.1892 0007591 048.2947 311.8782 16.07632251 73436
FALCON
1 30776U 07006E 08087.80042728 .00000522 00000-0 41152-4 0 2775
2 30776 035.4346 287.0675 0001764 353.0798 006.9893 15.02926151 57894
MAST
1 31126U 07012K 08087.72985066 .00000116 00000-0 37164-4 0 2883
2 31126 098.0447 155.3934 0094034 224.0002 135.3709 14.53408999 50181
CAPE1
1 31130U 07012P 08086.90952010 .00000023 00000-0 16367-4 0 02766
2 31130 098.0449 153.8027 0102019 228.6456 130.5914 14.51943023049789
/EX
More information about the Keps
mailing list